Погода в Карауле

Погода в Карауле : погода сейчас, прогноз погоды и архив. Всё, что Вы хотите узнать о погоде в Карауле!

Поиск расширенной информации на нашем сайте:

Другие новости

Новости СМИ2

Главная страница сайта

Новости сайта

02.10.2013

Напоминаем, что на нашем новом сайте вы можете получить высокодетализированные прогнозы погоды по пунктам России, СНГ и мира (включающие важные для авиации метеовеличины, такие как направление и скорость ветра, видимость, явления погоды, количество и форма облачности, нижняя и верхняя граница облачности), а также ознакомиться с разнообразными материалами по авиационной метеорологии и подборкой полезных ссылок на эту тему.

Сайт Метеоцентр.Азия посвящён разработке технологий оптимизации авиаметеорологического обслуживания, включая проектирование и перспективное создание нескольких автоматизированных авиаметеорологических систем:
- система выпуска высокодетальных прогностических карт явлений погоды для нижнего воздушного пространства по России и ближнему зарубежью;
- система верификации прогнозов TAF (выпускаемых синоптиками официальных АМСГ РФ и ближнего зарубежья) и AUTOTAF (выпускаемых сайтом Метеоцентр.Азия) - выявление ошибок, онлайн-сопоставление с фактической погодой METAR, автоматическое внесение коррективов в прогнозы при резком отклонении фактической погоды от прогноза, подсчёт оправдываемости прогнозов по элементам и в целом;
- система обработки, анализа и отображения авиаметеорологической информации для применения провайдерами метеорологической информации.

Рекомендуем: Где можно заказать промышленные полы.

Погода в Карауле - сегодня

Время (UTC), дата Ветер
(°,м/с) 
Видим.   Явления Облачность Т
(°С)
Тd
(°С)
f(%) Тe
(°С)
Pmin
(гПа)
dP
(гПа)
Po
(мм)
O2
(г/м3)
Тmin Tmax R s Состояние
почвы
06 25.02.17 290 (З) 20000 м  {снег}  9/9 300 м 
[Sc]
-19.5 -21.4 85 -24  1026.4  1.4  767  334           
09 25.02.17 290 (З) 20000 м    1/1 300 м 
[Sc]
-22.3 -24.8 80 -29  1028.7  2.3  769  339           
12 25.02.17 340 (С) 20000 м    ясно 
-24.8 -28 75 -25  1030.3  1.5  770  343    -16.7  0.0     
15 25.02.17 340 (С) 20000 м    ясно 
-25.6 -28.8 74 -26  1030.6  0.3  770  344           
18 25.02.17 020 (С) 20000 м    ясно 
-26.8 -30 74 -27  1030.6  770  346           
21 25.02.17 020 (С) 20000 м    ясно 
-29.9 -33 74 -34  1030.7  770  350           
00 26.02.17 020 (С) 20000 м    ясно 
-31.4 -34.2 76 -35  1027.3  0.4  770  353  -31.6      27  неравномерный
сухой снег
100% 
03 26.02.17 020 (С) 20000 м    ясно 
-30.8 -33.8 75 -35  1031.2  0.1  770  352           
06 26.02.17 090 (В) 20000 м    ясно 
-26.6 -29.7 75 -32  1031.1  770  346           
09 26.02.17 090 (В) 20000 м    ясно 
-26.1 -29.2 75 -33  1033.6  2.4  772  346           
12 26.02.17 090 (В) 20000 м    ясно 
-28.2 -30.6 80 -36  1033.7  0.1  772  349    -26       
15 26.02.17 090 (В) 20000 м    ясно 
-29.4 -32.4 75 -37  1033.7  772  351           
00 27.02.17 090 (В) 20000 м  позёмок  3/3 2000 м средняя 
[Ac trans]
-24.2 -26.6 81 -32  1029.2  -2.4  769  342  -26.9      27  неравномерный
сухой снег
100% 
03 27.02.17 090 (В) 8-11{12}  20000 м  позёмок  9/9 2000 м средняя 
[Ac trans]
-21.8 -24.3 80 -31  1027.1  -2  767  338           
06 27.02.17 090 (В) 10-14{14}  4000 м  метель  10/10 2000 м 
[As trans]
-17.1 -19.7 80 -26  1023.7  -3.3  765  330           
09 27.02.17 090 (В) 10-14{14}  4000 м  метель  10/10 2000 м 
[Ns]
-14.5 -17.2 80 -23  1021  -2.7  763  326           
12 27.02.17 090 (В) 11-16{16}  2000 м  метель  10/10 2000 м 
[Ns]
-13.1 -15.8 80 -21  1016.8  -4.1  760  323    -13.1       
15 27.02.17 120 (ЮВ) 13-18{19}  0500 м  снег  10/10 200 м 
[Ns]
-12.1 -13.4 90 -21  1013.5  -3.3  757  321           
18 27.02.17 120 (ЮВ) 12-18{18}  0500 м  снег  10/10 200 м 
[Ns]
-11.5 -12.8 90 -20  1010.2  -3.3  755  319           
21 27.02.17 120 (ЮВ) 12-18{19}  0500 м  снег  10/10 200 м 
[Ns]
-10.7 -12 90 -19  1005.5  -4.6  751  316           
00 28.02.17 120 (ЮВ) 11-16{18}  1000 м  снег  10/10 200 м 
[Ns]
-9.8 -11.5 87 -17  1001.1  -4.4  748  314  -13.3    42  неравномерный
сухой снег
100% 
03 28.02.17 140 (ЮВ) 12-18{19}  0500 м  снег  10/10 200 м 
[Ns]
-8.6 -9.7 92 -16  997.6  -3.5  745  311           
06 28.02.17 140 (ЮВ) 12-18{19}  2000 м  метель{снег}  10/10 300 м 
[Sc]
-5.4 -8.7 78 -12  995.9  -1.6  744  307           
09 28.02.17 140 (ЮВ) 11-17{19}  2000 м  метель  10/10 300 м 
[Sc]
-6.3 -7.5 91 -13  995.5  -0.4  744  308           
12 28.02.17 210 (ЮЗ) 10-14{17}  20000 м  позёмок{ливн. осадки}  10/10 300 м 
[Sc]
-10.2 -12.2 85 -17  1002.1  6.5  749  315    -5.8     
Время (UTC), дата Ветер
(°,м/с) 
Видим.   Явления Облачность Т
(°С)
Тd
(°С)
f(%) Тe
(°С)
Pmin
(гПа)
dP
(гПа)
Po
(мм)
O2
(г/м3)
Тmin Tmax R s Состояние
почвы

Для получения пояснительной информации подведите курсор к названию столбца.

ПОГОДА в Карауле - архив

Всё, что Вы хотите узнать о погоде в Карауле - удобно и подробно!

Выберите нужную дату (начиная с 1 января 2015* года) и нажмите кнопку "Найти".
Будут отображены архивные сводки погоды по пункту Караул, начиная с указанной даты.


Отображать данные в формате CSV (для использования в таблицах Excel)


Внимание! Наш архив погоды предназначен исключительно для личного некоммерческого использования в познавательных целях. Если Вам необходимы официальные справки о состоянии погоды (для производственных, юридических, коммерческих и т.п. целей), обращайтесь в органы Росгидромета.

*Примечание: данная дата относится к архиву по метеостанциям СССР (Россия, СНГ, Балтия).
Архив по метеостанциям Зарубежной Европы и Азии (кроме Китая) хранится 10 дней, по другим регионам земного шара (Китай, Африка, Америка, Австралия, Океания) - 1 день.

Караул - район местоположения метеостанции


Название, широта, долгота, высота метеостанции:
Караул 70.2°ш. 83.1°д. 29 м над ур. моря [Российская Федерация]

Дополнительная информация

В oтличие oт бoльшинства пoгoдных сайтoв мы публикуем пoдрoбную метеoинфoрмацию в детальнoм прoфессиoнальнoм фoрмате.

Характеристики температуры и влажнoсти вoздуха измеряются на высoте 2 м в тени вдали oт зданий и деревьев.
Скoрoсть ветра измеряется на высoте 10 м (на урoвне рoста челoвека скoрoсть ветра ниже в 1.5-2 раза). Если метеoстанция нахoдится в гoрoде или в лесу, тo скoрoсть ветра занижена на 2-4 м/с пo сравнению с oткрытым местoм. Скoрoсть ветра над акватoриями крупных рек и oзёр, а также на вершинах хoлмoв на 2-5 м/с выше, чем в oбычных услoвиях.
Атмoсфернoе давление в разных тoчках местнoсти мoжет значительнo oтличаться oт давления на метеoстанции, в зависимoсти oт услoвий рельефа (при пoдъёме на 10 м давление пoнижается примернo на 1 мм рт.ст.).